TimeCST,TemperatureF,Dew PointF,Humidity,Sea Level PressureIn,VisibilityMPH,Wind Direction,Wind SpeedMPH,Gust SpeedMPH,PrecipitationIn,Events,Conditions,WindDirDegrees,DateUTC
12:56 AM,14.0,9.0,80,29.93,-9999.0,West,3.5,-,N/A,,Unknown,270,2013-02-12 06:56:00
1:56 AM,10.9,7.0,84,29.94,-9999.0,NW,4.6,-,N/A,,Unknown,310,2013-02-12 07:56:00
2:56 AM,14.0,8.1,77,29.94,-9999.0,WNW,3.5,-,N/A,,Unknown,300,2013-02-12 08:56:00
3:56 AM,15.1,10.0,80,29.94,-9999.0,Calm,Calm,-,N/A,,Unknown,0,2013-02-12 09:56:00
4:56 AM,18.0,12.0,78,29.94,-9999.0,West,3.5,-,N/A,,Unknown,280,2013-02-12 10:56:00
5:56 AM,19.9,12.9,74,29.94,-9999.0,West,4.6,-,N/A,,Unknown,280,2013-02-12 11:56:00
6:56 AM,19.0,12.9,77,29.94,-9999.0,WNW,3.5,-,N/A,,Unknown,300,2013-02-12 12:56:00
7:56 AM,18.0,10.9,74,29.92,-9999.0,WNW,4.6,-,N/A,,Unknown,290,2013-02-12 13:56:00
8:56 AM,23.0,14.0,68,29.92,-9999.0,West,9.2,-,N/A,,Unknown,260,2013-02-12 14:56:00
9:56 AM,21.9,15.1,75,29.91,-9999.0,WSW,18.4,26.5,N/A,,Unknown,240,2013-02-12 15:56:00
10:56 AM,23.0,17.1,78,29.89,-9999.0,WSW,10.4,-,N/A,,Unknown,250,2013-02-12 16:56:00
11:56 AM,24.1,17.1,75,29.87,-9999.0,SW,13.8,-,N/A,,Unknown,230,2013-02-12 17:56:00
12:56 PM,26.1,19.0,75,29.84,-9999.0,SW,13.8,-,N/A,,Unknown,230,2013-02-12 18:56:00
1:56 PM,27.0,19.9,75,29.81,-9999.0,WSW,10.4,-,N/A,,Unknown,240,2013-02-12 19:56:00
2:56 PM,28.0,21.9,78,29.79,-9999.0,WSW,10.4,-,N/A,,Unknown,250,2013-02-12 20:56:00
3:56 PM,28.9,23.0,78,29.79,-9999.0,WSW,8.1,19.6,N/A,,Unknown,250,2013-02-12 21:56:00
4:56 PM,28.9,21.9,75,29.77,-9999.0,Variable,4.6,-,N/A,,Unknown,0,2013-02-12 22:56:00
5:56 PM,28.9,21.9,75,29.76,-9999.0,West,4.6,-,N/A,,Unknown,270,2013-02-12 23:56:00
6:56 PM,28.0,21.0,75,29.75,-9999.0,West,4.6,-,N/A,,Unknown,280,2013-02-13 00:56:00
7:56 PM,26.1,19.9,78,29.74,-9999.0,West,4.6,-,N/A,,Unknown,270,2013-02-13 01:56:00
8:56 PM,24.1,19.0,81,29.73,-9999.0,Calm,Calm,-,N/A,,Unknown,0,2013-02-13 02:56:00
9:56 PM,27.0,19.9,75,29.71,-9999.0,West,3.5,-,N/A,,Unknown,280,2013-02-13 03:56:00
10:56 PM,26.1,19.0,75,29.69,-9999.0,WNW,3.5,-,N/A,,Unknown,290,2013-02-13 04:56:00
11:56 PM,26.1,19.9,78,29.68,-9999.0,West,4.6,-,N/A,,Unknown,270,2013-02-13 05:56:00